Flag for U.S.A. Weather past 2 weeks in Akron, Ohio, U.S.A.

Now
1 °F

Clear.


Feels Like: 1 °F
Forecast: 0 / 24 °F
Wind: No wind

Location: Akron Fulton International Airport

Current Time: Mar 6, 2015 at 1:50:58 AM

Latest Report: Mar 6, 2015 at 12:54 AM


Visibility: 10 mi

Pressure: 30.54 "Hg

Humidity: 68%

Dew point: -7 °F

Location of AkronLocation

Historic Weather in Akron — Graph

°F

Akron temperature yesterday

Maximum temperature yesterday: 22 °F (at 12:54 AM)
Minimum temperature yesterday: 2 °F (at 11:54 PM)
Average temperature yesterday: 14 °F

Past Weeks' High & Low Weather Summary

 TemperatureHumidityPressure
High42 °F (Mar 3, 7:54 PM)92% (Feb 22, 8:54 AM)30.82 "Hg (Feb 22, 8:54 AM)
Low-12 °F (Feb 20, 7:54 AM)30% (Feb 28, 3:54 PM)29.68 "Hg (Mar 3, 5:54 PM)
Average17 °F66%30.25 "Hg
* Reported Feb 19 1:01 AM — Mar 6 12:54 AM, Akron, Weather by CustomWeather, © 2015

Note: Actual official high and low records may vary slightly from our data, if they occured in-between our weather recording intervals... More about our weather records

Advertising

Akron weather history for previous 24 hours

 ConditionsComfort  
Time TempWeatherWind HumidityBarometerVisibility
12:54 AM
Fri, Mar 6
1 °FClear.No wind68%30.54 "Hg10 mi
11:54 PM
Thu, Mar 5
2 °FClear.No wind72%30.55 "Hg10 mi
10:54 PM3 °FClear.No wind79%30.55 "Hg7 mi
9:54 PM5 °FClear.3 mph66%30.54 "Hg10 mi
8:54 PM6 °FClear.5 mph66%30.53 "Hg10 mi
7:54 PM12 °FClear.3 mph56%30.52 "Hg10 mi
6:54 PM13 °FPassing clouds.8 mph56%30.48 "Hg10 mi
5:54 PM15 °FSunny.10 mph51%30.45 "Hg10 mi
4:54 PM16 °FSunny.14 mph51%30.42 "Hg10 mi
3:54 PM16 °FPartly sunny.14 mph51%30.39 "Hg10 mi
2:54 PM16 °FPassing clouds.12 mph49%30.36 "Hg10 mi
1:54 PM17 °FOvercast.9 mph47%30.35 "Hg10 mi
12:54 PM17 °FSunny.10 mph49%30.34 "Hg10 mi
11:54 AM15 °FPassing clouds.9 mph53%30.35 "Hg10 mi
10:54 AM15 °FPassing clouds.12 mph56%30.32 "Hg10 mi
9:54 AM14 °FSunny.10 mph58%30.34 "Hg10 mi
8:54 AM14 °FPassing clouds.12 mph56%30.31 "Hg10 mi
8:04 AM14 °FBroken clouds.10 mph61%30.27 "Hg10 mi
7:54 AM14 °FMostly cloudy.10 mph61%30.32 "Hg10 mi
6:54 AM15 °FPassing clouds.13 mph61%30.27 "Hg10 mi
5:54 AM16 °FPassing clouds.13 mph56%30.26 "Hg10 mi
4:54 AM16 °FOvercast.10 mph51%30.24 "Hg10 mi
3:54 AM17 °FOvercast.15 mph56%30.22 "Hg10 mi
2:54 AM19 °FOvercast.16 mph47%30.22 "Hg10 mi
2:02 AM20 °FOvercast.17 mph52%30.18 "Hg10 mi
1:54 AM20 °FOvercast.17 mph57%30.23 "Hg10 mi
Weather by CustomWeather, © 2015

See weather overviewHow to use our weather pages